Dewpoint
48 43 43 44 43 42 41 42 45 45 46 47 47 47 47 46 46 48 48 49 49 49
46 46 44 45 44 42 44 43 45 46 45 46 46 46 46 45 46 46 47 48 50 50
45 45 44 44 44 44 44 45 44 45 46 46 45 45 46 45 46 46 46 47 49 48
43 44 44 43 43 44 45 45 44 44 45 44 44 45 45 46 46 46 46 48 48 49
43 43 43 43 43 44 44 44 44 44 43 44 44 44 45 45 46 46 46 47 48 49
42 42 43 43 43 44 44 44 44 44 44 44 45 45 45 46 46 46 47 48 48 49
43 43 43 42 44 44 45 44 44 44 44 44 45 45 46 46 46 48 48 49 49 50
42 42 42 43 44 45 45 44 44 44 43 44 45 46 46 48 47 47 49 50 50 51
41 41 42 43 44 44 43 43 43 43 43 43 44 45 47 49 49 50 51 51 52 53
40 41 43 42 43 43 42 43 43 43 43 43 45 44 45 47 48 47 47 48 48 49
40 42 42 42 42 42 42 43 43 43 43 44 45 44 44 46 48 47 47 47 47 47
42 42 43 43 43 42 41 42 43 43 43 43 44 42 43 46 47 48 47 47 47 47
41 43 42 42 43 43 45 43 43 42 43 43 43 41 41 45 46 46 46 47 47 44
42 42 41 41 41 40 40 42 45 45 46 45 44 43 41 42 46 46 46 45 44 46
Lifted_Index
10 9 9 8 9 10 11 11 12 12 11 11 11 11 11 11 11 12 13 13 12 12
9 9 9 9 10 10 11 11 11 11 10 10 10 10 10 10 10 11 12 13 12 12
9 9 9 10 10 10 11 11 11 10 10 10 9 9 9 8 9 9 11 12 12 13
9 9 10 10 10 10 10 10 10 10 10 9 9 8 8 7 7 8 9 10 12 12
9 9 9 9 9 10 10 10 10 10 9 8 8 7 6 6 6 6 7 9 10 11
9 9 9 9 9 9 9 10 10 10 9 8 7 6 5 5 5 5 6 8 9 10
10 10 10 10 10 10 10 10 10 10 9 8 7 6 5 5 5 5 6 8 9 10
11 11 11 10 10 10 10 11 10 10 9 8 7 6 6 5 6 6 7 8 9 9
11 11 11 11 11 11 11 11 10 10 9 8 8 7 7 6 7 7 8 8 8 8
12 12 11 11 11 11 11 11 10 10 9 9 8 8 8 7 7 7 7 7 6 6
12 12 12 11 11 12 11 11 10 10 10 9 9 9 8 8 7 7 6 6 6 5
13 13 12 12 12 12 12 11 11 11 10 10 10 9 9 9 8 7 7 7 7 7
13 13 13 13 13 13 12 12 12 12 11 10 10 10 9 9 9 8 8 8 9 9
13 13 13 13 13 13 13 12 12 12 12 11 10 10 9 9 9 9 9 9 9 10